This is the latest recevied weather packets stored in our database for station/object LY3FF-10. If no packets are shown the sender has not sent any weather packets the latest 10 day(s).
| Time | Temp. | Humidity | Pressure | Rain* | Wind** | Luminosity | Snow |
|---|---|---|---|---|---|---|---|
| 1788036490 | 16.67° C | 83% | 992.6 hPa | - | - | - | - |
| 1788035760 | 16.67° C | 83% | 992.6 hPa | - | - | - | - |
| 1788034900 | 16.67° C | 82% | 992.6 hPa | - | - | - | - |
| 1788034004 | 17.22° C | 82% | 992.6 hPa | - | - | - | - |
| 1788033260 | 17.22° C | 81% | 992.6 hPa | - | - | - | - |
| 1788032490 | 17.22° C | 81% | 992.7 hPa | - | - | - | - |
| 1788031650 | 17.22° C | 79% | 992.6 hPa | - | - | - | - |
| 1788030835 | 17.22° C | 79% | 992.7 hPa | - | - | - | - |
| 1788030050 | 17.78° C | 78% | 992.6 hPa | - | - | - | - |
| 1788029180 | 17.22° C | 78% | 992.7 hPa | - | - | - | - |
| 1788028330 | 17.78° C | 77% | 992.7 hPa | - | - | - | - |
| 1788027460 | 17.78° C | 77% | 992.8 hPa | - | - | - | - |
| 1788026615 | 17.78° C | 77% | 992.8 hPa | - | - | - | - |
| 1788025840 | 17.78° C | 76% | 993 hPa | - | - | - | - |
| 1788025030 | 17.78° C | 75% | 993.3 hPa | - | - | - | - |
| 1788024134 | 17.78° C | 74% | 993.3 hPa | - | - | - | - |
| 1788023260 | 17.78° C | 74% | 993.3 hPa | - | - | - | - |
| 1788022384 | 17.78° C | 72% | 993.4 hPa | - | - | - | - |
| 1788021644 | 17.78° C | 71% | 993.4 hPa | - | - | - | - |
| 1788020800 | 18.33° C | 70% | 993.4 hPa | - | - | - | - |
| 1788019915 | 18.33° C | 69% | 993.5 hPa | - | - | - | - |
| 1788019180 | 18.33° C | 67% | 993.5 hPa | - | - | - | - |
| 1788018280 | 18.89° C | 65% | 993.5 hPa | - | - | - | - |
| 1788017525 | 19.44° C | 64% | 993.5 hPa | - | - | - | - |
| 1788016662 | 20° C | 60% | 993.5 hPa | - | - | - | - |
* Rain since midnight (hover to see other rain measurements)
** Current wind speed in m/s (hover to see current wind gust speed)